Location: Unspecified
(41.1850°N, 73.2650°W)
Time: 21:52:11
(UTC+00:00)

Cosmos 1812 Rocket - Pass Details

Date: 14 December 2025
Orbit: 600 x 624 km, 82.5° (Epoch: 12 January)

Event Time Altitude Azimuth Distance (km) Brightness Sun altitude
Rises 23:06:54 0° 167° (SSE) 2,843 7.0 -18.5°
Reaches altitude 10° 23:09:13 10° 159° (SSE) 1,941 6.0 -18.9°
Enters shadow 23:11:57 30° 128° (SE) 1,075 4.4 -19.4°
